RYR1715 LGKR-EIDW

Flight info

Callsign RYR1715
Flight time N/A
Altitude 36000
Route OLGAT DCT OKIMO DCT AIOSA DCT DARZA DCT INGID DCT SIMBA DCT EXITI DCT GASKA DCT MAPOX DCT RAVLO Y70 OTBED L60 PENIL UL28 LELDO M145 BAGSO BAGSO4L
Aircraft B738/M-SDE3FGIJ1LRWY/SB1

Departure

Time N/A
Airport Corfu Ioannis Kapodistrias International Airport (LGKR)

Arrival

Time 2026-05-04 19:51
Airport Dublin Airport (EIDW)
Time Latitude Longitude Altitude Speed Heading
2026-05-04 18:49 52.31539 4.98153 35994 ft 430 kts 295°
2026-05-04 18:49 52.32986 4.93900 36004 ft 429 kts 295°
2026-05-04 18:50 52.35881 4.85367 35992 ft 429 kts 295°
2026-05-04 18:50 52.38768 4.76832 35997 ft 428 kts 295°
2026-05-04 18:51 52.41645 4.68293 36007 ft 428 kts 295°
2026-05-04 18:51 52.44515 4.59748 36017 ft 428 kts 295°
2026-05-04 18:52 52.47381 4.51187 36002 ft 428 kts 295°
2026-05-04 18:52 52.50143 4.42904 36006 ft 428 kts 295°
2026-05-04 18:53 52.52995 4.34325 36006 ft 428 kts 295°
2026-05-04 18:53 52.55836 4.25752 36005 ft 428 kts 295°
2026-05-04 18:54 52.58675 4.17151 36018 ft 428 kts 295°
2026-05-04 18:54 52.61503 4.08557 36017 ft 427 kts 294°
2026-05-04 18:55 52.64325 3.99949 36029 ft 427 kts 295°
2026-05-04 18:55 52.68530 3.87064 36018 ft 427 kts 295°
2026-05-04 18:56 52.71335 3.78432 36039 ft 427 kts 295°
2026-05-04 18:56 52.74154 3.69727 36030 ft 427 kts 295°
2026-05-04 18:57 52.76929 3.61127 36026 ft 427 kts 295°
2026-05-04 18:57 52.79711 3.52474 36020 ft 427 kts 295°
2026-05-04 18:58 52.82490 3.43801 36027 ft 427 kts 295°
2026-05-04 18:58 52.85259 3.35128 36034 ft 427 kts 295°
2026-05-04 18:59 52.88025 3.26436 36026 ft 427 kts 295°
2026-05-04 18:59 52.90780 3.17738 36019 ft 426 kts 294°
2026-05-04 19:00 52.92647 3.08548 36043 ft 420 kts 279°
2026-05-04 19:00 52.93846 2.99069 36043 ft 421 kts 279°
2026-05-04 19:01 52.95048 2.89565 36043 ft 422 kts 279°
2026-05-04 19:01 52.96276 2.80046 36041 ft 422 kts 280°
2026-05-04 19:02 52.97510 2.70514 36041 ft 423 kts 280°
2026-05-04 19:02 52.98742 2.60950 36045 ft 424 kts 280°
2026-05-04 19:03 52.99968 2.51364 36045 ft 425 kts 281°
2026-05-04 19:03 53.01189 2.41760 36048 ft 426 kts 280°
2026-05-04 19:04 53.02405 2.32122 36047 ft 427 kts 280°
2026-05-04 19:04 53.03615 2.22461 36047 ft 428 kts 280°
2026-05-04 19:05 53.04821 2.12770 36049 ft 428 kts 280°
2026-05-04 19:05 53.06018 2.03073 36053 ft 429 kts 280°
2026-05-04 19:06 53.07208 1.93356 36046 ft 429 kts 280°
2026-05-04 19:06 53.08391 1.83622 36051 ft 429 kts 280°
2026-05-04 19:07 53.09559 1.73957 36049 ft 430 kts 280°
2026-05-04 19:07 53.10735 1.64145 36050 ft 430 kts 280°
2026-05-04 19:08 53.11890 1.54437 36052 ft 430 kts 280°
2026-05-04 19:08 53.13045 1.44664 36046 ft 431 kts 280°
2026-05-04 19:09 53.14193 1.34877 36055 ft 431 kts 280°
2026-05-04 19:09 53.15332 1.25087 36052 ft 431 kts 280°
2026-05-04 19:10 53.16466 1.15270 36052 ft 431 kts 280°
2026-05-04 19:10 53.17591 1.05453 36052 ft 432 kts 280°
2026-05-04 19:11 53.18709 0.95619 36041 ft 432 kts 280°
2026-05-04 19:11 53.19828 0.85702 36052 ft 432 kts 280°
2026-05-04 19:12 53.21476 0.70959 36053 ft 433 kts 280°
2026-05-04 19:13 53.22571 0.61072 36051 ft 434 kts 280°
2026-05-04 19:13 53.23659 0.51157 36052 ft 434 kts 279°
2026-05-04 19:14 53.24738 0.41236 36048 ft 435 kts 280°
2026-05-04 19:14 53.25810 0.31287 36044 ft 436 kts 280°
2026-05-04 19:15 53.26880 0.21298 36061 ft 437 kts 280°
2026-05-04 19:15 53.27945 0.11283 36053 ft 439 kts 280°
2026-05-04 19:16 53.29006 0.01213 36051 ft 441 kts 280°
2026-05-04 19:16 53.30059 -0.08893 36046 ft 442 kts 280°
2026-05-04 19:17 53.31106 -0.19026 36049 ft 443 kts 280°
2026-05-04 19:17 53.32149 -0.29193 36048 ft 444 kts 280°
2026-05-04 19:18 53.33178 -0.39298 36047 ft 444 kts 280°
2026-05-04 19:18 53.34202 -0.49471 36047 ft 443 kts 279°
2026-05-04 19:19 53.35217 -0.59640 36047 ft 443 kts 279°
2026-05-04 19:19 53.36223 -0.69803 36045 ft 442 kts 279°
2026-05-04 19:20 53.37218 -0.79941 36043 ft 441 kts 279°
2026-05-04 19:20 53.38204 -0.90057 36043 ft 440 kts 279°
2026-05-04 19:21 53.39178 -1.00168 36044 ft 439 kts 279°
2026-05-04 19:21 53.40140 -1.10261 36037 ft 439 kts 279°
2026-05-04 19:22 53.41096 -1.20354 36046 ft 438 kts 279°
2026-05-04 19:22 53.42041 -1.30458 36043 ft 439 kts 279°
2026-05-04 19:23 53.42976 -1.40566 36043 ft 439 kts 279°
2026-05-04 19:23 53.43914 -1.50760 36055 ft 448 kts 279°
2026-05-04 19:24 53.44863 -1.61200 36060 ft 458 kts 279°
2026-05-04 19:24 53.45823 -1.71878 36061 ft 466 kts 279°
2026-05-04 19:25 53.46785 -1.82651 36044 ft 467 kts 279°
2026-05-04 19:25 53.47729 -1.93372 36046 ft 467 kts 279°
2026-05-04 19:26 53.48675 -2.04231 36046 ft 467 kts 279°
2026-05-04 19:26 53.49602 -2.14948 36051 ft 466 kts 279°
2026-05-04 19:27 53.50521 -2.25732 36054 ft 466 kts 279°
2026-05-04 19:27 53.51375 -2.36523 36056 ft 466 kts 277°
2026-05-04 19:28 53.52072 -2.47355 36058 ft 466 kts 277°
2026-05-04 19:28 53.52744 -2.58187 36062 ft 466 kts 277°
2026-05-04 19:29 53.53426 -2.69009 36060 ft 466 kts 277°
2026-05-04 19:29 53.54109 -2.79839 36059 ft 466 kts 277°
2026-05-04 19:30 53.54786 -2.90664 36068 ft 466 kts 277°
2026-05-04 19:30 53.55454 -3.01501 35883 ft 469 kts 277°
2026-05-04 19:30 53.55789 -3.06991 35270 ft 473 kts 277°
2026-05-04 19:31 53.56120 -3.12490 34638 ft 472 kts 277°
2026-05-04 19:31 53.56447 -3.17962 33963 ft 470 kts 277°
2026-05-04 19:31 53.56771 -3.23430 33190 ft 469 kts 277°
2026-05-04 19:31 53.57093 -3.28901 32444 ft 469 kts 277°
2026-05-04 19:32 53.57412 -3.34360 31711 ft 469 kts 277°
2026-05-04 19:32 53.57731 -3.39850 30965 ft 474 kts 277°
2026-05-04 19:32 53.58034 -3.45103 30299 ft 479 kts 277°
2026-05-04 19:32 53.58343 -3.50696 29707 ft 481 kts 275°
2026-05-04 19:33 53.58301 -3.56281 29087 ft 475 kts 265°
2026-05-04 19:33 53.58048 -3.59933 28766 ft 471 kts 264°
2026-05-04 19:33 53.57650 -3.65328 28232 ft 464 kts 264°
2026-05-04 19:33 53.57253 -3.70691 27654 ft 459 kts 264°
2026-05-04 19:34 53.56870 -3.75997 27073 ft 455 kts 264°
2026-05-04 19:34 53.56501 -3.81259 26498 ft 451 kts 264°
2026-05-04 19:34 53.56142 -3.86476 25959 ft 447 kts 264°
2026-05-04 19:34 53.55791 -3.91643 25421 ft 442 kts 264°
2026-05-04 19:35 53.55444 -3.96751 24894 ft 438 kts 264°
2026-05-04 19:35 53.55099 -4.01830 24378 ft 434 kts 264°
2026-05-04 19:35 53.54755 -4.06851 23873 ft 431 kts 264°
2026-05-04 19:35 53.54412 -4.11828 23318 ft 427 kts 264°
2026-05-04 19:36 53.54069 -4.16772 22748 ft 423 kts 263°
2026-05-04 19:36 53.53727 -4.21661 22171 ft 420 kts 263°
2026-05-04 19:36 53.53387 -4.26496 21662 ft 415 kts 263°
2026-05-04 19:36 53.53046 -4.31304 21068 ft 413 kts 263°
2026-05-04 19:37 53.52706 -4.36082 20529 ft 410 kts 263°
2026-05-04 19:37 53.52368 -4.40799 20108 ft 404 kts 263°
2026-05-04 19:37 53.52032 -4.45455 19641 ft 399 kts 263°
2026-05-04 19:37 53.51702 -4.50014 19124 ft 397 kts 263°
2026-05-04 19:38 53.51364 -4.54659 18622 ft 394 kts 263°
2026-05-04 19:38 53.51031 -4.59205 18158 ft 390 kts 263°
2026-05-04 19:38 53.50700 -4.63698 17644 ft 386 kts 263°
2026-05-04 19:38 53.50371 -4.68148 17114 ft 383 kts 263°
2026-05-04 19:39 53.50042 -4.72569 16595 ft 380 kts 263°
2026-05-04 19:39 53.49715 -4.76940 16143 ft 375 kts 263°
2026-05-04 19:39 53.49390 -4.81262 15670 ft 372 kts 263°
2026-05-04 19:39 53.49066 -4.85559 15183 ft 369 kts 263°
2026-05-04 19:40 53.48744 -4.89801 14756 ft 362 kts 263°
2026-05-04 19:40 53.48428 -4.93945 14104 ft 355 kts 263°
2026-05-04 19:40 53.48115 -4.98029 13273 ft 352 kts 263°
2026-05-04 19:40 53.47803 -5.02074 12525 ft 346 kts 263°
2026-05-04 19:41 53.47493 -5.06076 11632 ft 346 kts 263°
2026-05-04 19:41 53.47184 -5.10057 10908 ft 341 kts 263°
2026-05-04 19:41 53.46877 -5.13982 10202 ft 336 kts 263°
2026-05-04 19:41 53.46579 -5.17791 9433 ft 333 kts 263°
2026-05-04 19:42 53.46275 -5.21654 8890 ft 326 kts 263°
2026-05-04 19:42 53.45981 -5.25384 8475 ft 320 kts 263°
2026-05-04 19:42 53.45685 -5.29120 8120 ft 326 kts 263°
2026-05-04 19:42 53.45385 -5.32897 7875 ft 326 kts 263°
2026-05-04 19:43 53.45086 -5.36649 7623 ft 323 kts 263°
2026-05-04 19:43 53.44791 -5.40327 7363 ft 321 kts 263°
2026-05-04 19:43 53.44492 -5.44041 6994 ft 322 kts 263°
2026-05-04 19:43 53.44186 -5.47822 6569 ft 322 kts 263°
2026-05-04 19:44 53.43885 -5.51524 6154 ft 318 kts 263°
2026-05-04 19:44 53.43592 -5.55118 5752 ft 313 kts 263°
2026-05-04 19:44 53.43297 -5.58711 5351 ft 309 kts 263°
2026-05-04 19:44 53.43005 -5.62265 4963 ft 306 kts 263°
2026-05-04 19:45 53.42715 -5.65774 4564 ft 302 kts 264°
2026-05-04 19:45 53.42428 -5.69243 4174 ft 299 kts 264°
2026-05-04 19:45 53.42143 -5.72665 3907 ft 293 kts 264°
2026-05-04 19:45 53.41865 -5.76010 3641 ft 287 kts 264°
2026-05-04 19:46 53.41591 -5.79292 3382 ft 282 kts 264°
2026-05-04 19:46 53.41321 -5.82512 3172 ft 275 kts 265°
2026-05-04 19:46 53.41059 -5.85637 3045 ft 266 kts 265°
2026-05-04 19:46 53.40804 -5.88648 3004 ft 255 kts 265°
2026-05-04 19:47 53.40559 -5.91523 2989 ft 243 kts 265°
2026-05-04 19:47 53.40396 -5.94263 2987 ft 229 kts 275°
2026-05-04 19:47 53.40514 -5.96828 2990 ft 215 kts 279°
2026-05-04 19:47 53.40663 -5.99253 2979 ft 203 kts 279°
2026-05-04 19:48 53.40788 -6.01526 2973 ft 190 kts 279°
2026-05-04 19:48 53.40901 -6.03702 2772 ft 185 kts 278°
2026-05-04 19:48 53.40969 -6.05826 2566 ft 181 kts 276°
2026-05-04 19:48 53.41033 -6.07930 2259 ft 181 kts 277°
2026-05-04 19:49 53.41135 -6.10023 1973 ft 180 kts 278°
2026-05-04 19:49 53.41271 -6.12105 1684 ft 179 kts 279°
2026-05-04 19:49 53.41402 -6.14167 1446 ft 177 kts 278°
2026-05-04 19:49 53.41525 -6.16165 1212 ft 167 kts 278°
2026-05-04 19:50 53.41625 -6.18006 1050 ft 150 kts 278°
2026-05-04 19:50 53.41723 -6.19753 825 ft 153 kts 275°
2026-05-04 19:50 53.41825 -6.21471 657 ft 154 kts 276°
2026-05-04 19:50 53.41925 -6.23264 463 ft 155 kts 275°
2026-05-04 19:51 53.42025 -6.25079 258 ft 156 kts 275°
2026-05-04 19:51 53.42117 -6.26719 210 ft 114 kts 275°
2026-05-04 19:51 53.42170 -6.27653 211 ft 40 kts 280°
2026-05-04 19:51 53.42265 -6.28032 216 ft 17 kts 300°
2026-05-04 19:52 53.42328 -6.28126 214 ft 12 kts 354°
2026-05-04 19:52 53.42362 -6.28055 215 ft 8 kts 90°
2026-05-04 19:52 53.42356 -6.27932 210 ft 14 kts 95°
2026-05-04 19:52 53.42345 -6.27721 212 ft 22 kts 95°
2026-05-04 19:53 53.42329 -6.27433 210 ft 28 kts 95°
2026-05-04 19:53 53.42310 -6.27090 217 ft 32 kts 95°
2026-05-04 19:53 53.42291 -6.26738 210 ft 31 kts 95°
2026-05-04 19:53 53.42271 -6.26374 214 ft 31 kts 95°
2026-05-04 19:54 53.42326 -6.26055 210 ft 29 kts 47°
2026-05-04 19:54 53.42460 -6.25818 213 ft 27 kts 44°
2026-05-04 19:54 53.42591 -6.25603 210 ft 25 kts 45°
2026-05-04 19:54 53.42710 -6.25397 219 ft 24 kts 46°
2026-05-04 19:55 53.42796 -6.25180 211 ft 23 kts 88°
2026-05-04 19:55 53.42853 -6.24986 215 ft 19 kts 46°
2026-05-04 19:55 53.42910 -6.24886 210 ft 7 kts 47°
2026-05-04 19:55 53.42938 -6.24834 210 ft 4 kts 42°
2026-05-04 19:56 53.42967 -6.24819 211 ft 4 kts 10°
2026-05-04 19:56 53.42991 -6.24815 210 ft 1 kts
2026-05-04 19:56 53.42998 -6.24814 210 ft 1 kts
2026-05-04 19:56 53.43001 -6.24813 210 ft 0 kts